GW0175 Weather Reports


Display with metric or nautical units.
time (UTC)temp
F
wind
direction
speed
MPH
gust
MPH
rain 1hr
in
rain 24hr
in
rain mn
in
humidity
%
barometer
mb
20260902192236 99 239 3.0 3.0 0.00 0.00 0.00 26 1013.0
20260902191730 98 192 2.0 9.0 0.00 0.00 0.00 27 1013.0
20260902191225 100 171 5.0 5.0 0.00 0.00 0.00 26 1013.2
20260902190721 99 270 0.0 6.0 0.00 0.00 0.00 27 1013.1
20260902190220 98 0 2.0 4.0 0.00 0.00 0.00 27 1013.3
20260902185716 97 262 0.0 8.0 0.00 0.00 0.00 28 1013.3
20260902185212 99 235 2.0 5.0 0.00 0.00 0.00 28 1013.5
20260902184707 98 225 0.0 5.0 0.00 0.00 0.00 28 1013.6
20260902184202 98 190 2.0 5.0 0.00 0.00 0.00 28 1013.6
20260902183658 97 180 3.0 7.0 0.00 0.00 0.00 28 1013.6
20260902183154 97 194 1.0 5.0 0.00 0.00 0.00 29 1014.1
20260902182650 97 166 3.0 5.0 0.00 0.00 0.00 30 1014.2
20260902182147 97 191 6.0 9.0 0.00 0.00 0.00 30 1014.2
20260902181642 96 114 2.0 5.0 0.00 0.00 0.00 30 1014.1
20260902181142 96 168 4.0 4.0 0.00 0.00 0.00 30 1014.5
20260902180642 97 161 0.0 4.0 0.00 0.00 0.00 29 1014.5
20260902180138 95 156 2.0 8.0 0.00 0.00 0.00 31 1014.5
20260902175637 96 197 3.0 4.0 0.00 0.00 0.00 30 1014.2
20260902175133 94 348 0.0 5.0 0.00 0.00 0.00 32 1014.4
20260902174629 95 0 0.0 3.0 0.00 0.00 0.00 32 1014.8
20260902174125 95 150 3.0 4.0 0.00 0.00 0.00 31 1014.6
20260902173620 95 262 5.0 5.0 0.00 0.00 0.00 32 1014.7
20260902173115 94 183 3.0 6.0 0.00 0.00 0.00 33 1015.0
20260902172609 96 156 7.0 7.0 0.00 0.00 0.00 31 1015.0
20260902172103 95 26 3.0 4.0 0.00 0.00 0.00 31 1015.1
20260902171559 94 114 1.0 4.0 0.00 0.00 0.00 33 1015.3
20260902171055 94 154 1.0 3.0 0.00 0.00 0.00 33 1015.0
20260902170550 93 181 6.0 6.0 0.00 0.00 0.00 33 1015.3
20260902170045 92 103 0.0 5.0 0.00 0.00 0.00 35 1015.3
20260902165539 96 151 0.0 2.0 0.00 0.00 0.00 32 1015.8
20260902165034 93 173 0.0 4.0 0.00 0.00 0.00 34 1015.3
20260902164529 91 270 0.0 3.0 0.00 0.00 0.00 36 1015.5
20260902164028 90 23 2.0 3.0 0.00 0.00 0.00 37 1015.3
20260902163524 89 7 1.0 2.0 0.00 0.00 0.00 37 1015.4
20260902163021 90 172 0.0 2.0 0.00 0.00 0.00 36 1015.5
20260902162516 90 157 0.0 2.0 0.00 0.00 0.00 37 1015.5
20260902162011 89 166 0.0 2.0 0.00 0.00 0.00 37 1015.5
20260902161506 89 90 0.0 2.0 0.00 0.00 0.00 37 1015.5
20260902161002 88 304 0.0 3.0 0.00 0.00 0.00 38 1015.8
20260902160458 88 0 2.0 3.0 0.00 0.00 0.00 39 1015.6
20260902155955 88 7 1.0 3.0 0.00 0.00 0.00 39 1015.8
20260902155451 88 276 0.0 2.0 0.00 0.00 0.00 39 1015.5
20260902154945 87 60 0.0 3.0 0.00 0.00 0.00 41 1015.9
20260902154440 86 300 0.0 3.0 0.00 0.00 0.00 42 1015.6
20260902153940 85 0 3.0 3.0 0.00 0.00 0.00 42 1015.7
20260902153438 85 60 0.0 3.0 0.00 0.00 0.00 43 1015.6
20260902152934 84 90 3.0 5.0 0.00 0.00 0.00 44 1015.7
20260902152430 85 45 2.0 3.0 0.00 0.00 0.00 42 1015.8
20260902151925 83 90 1.0 3.0 0.00 0.00 0.00 45 1015.7
20260902151421 83 90 0.0 1.0 0.00 0.00 0.00 46 1015.8
20260902150915 80 63 2.0 3.0 0.00 0.00 0.00 49 1015.8
20260902150411 80 84 2.0 4.0 0.00 0.00 0.00 49 1015.7
20260902145910 80 59 3.0 4.0 0.00 0.00 0.00 48 1015.7
20260902145406 81 123 2.0 3.0 0.00 0.00 0.00 48 1015.6
20260902144901 81 23 2.0 2.0 0.00 0.00 0.00 48 1015.8
20260902144357 82 12 0.0 3.0 0.00 0.00 0.00 47 1015.7
20260902143857 80 349 2.0 5.0 0.00 0.00 0.00 49 1015.6
20260902143352 81 14 1.0 3.0 0.00 0.00 0.00 49 1015.6
20260902142848 81 356 2.0 3.0 0.00 0.00 0.00 48 1015.5
20260902142344 81 90 0.0 1.0 0.00 0.00 0.00 49 1015.6
20260902141839 80 4 2.0 3.0 0.00 0.00 0.00 48 1015.4
20260902141334 80 328 0.0 3.0 0.00 0.00 0.00 49 1015.4
20260902140833 80 270 0.0 2.0 0.00 0.00 0.00 48 1015.4
20260902140328 79 222 0.0 3.0 0.00 0.00 0.00 49 1015.5
20260902135828 78 334 0.0 1.0 0.00 0.00 0.00 51 1015.4
20260902135324 76 0 1.0 3.0 0.00 0.00 0.00 53 1015.0
20260902134823 76 18 3.0 3.0 0.00 0.00 0.00 54 1015.1
20260902134319 76 0 0.0 0.0 0.00 0.00 0.00 54 1015.4
20260902133814 75 352 2.0 2.0 0.00 0.00 0.00 56 1015.0
20260902133314 74 15 1.0 2.0 0.00 0.00 0.00 58 1015.0
20260902132809 73 19 2.0 2.0 0.00 0.00 0.00 59 1015.1
20260902132306 72 0 1.0 2.0 0.00 0.00 0.00 61 1015.0
20260902131800 71 348 1.0 3.0 0.00 0.00 0.00 61 1015.1
20260902131256 70 5 1.0 2.0 0.00 0.00 0.00 61 1014.9
20260902130755 70 23 1.0 2.0 0.00 0.00 0.00 61 1015.0
20260902130251 70 5 1.0 3.0 0.00 0.00 0.00 61 1014.7
20260902125747 70 326 0.0 2.0 0.00 0.00 0.00 62 1015.0
20260902125242 70 353 0.0 1.0 0.00 0.00 0.00 63 1015.0
20260902124738 69 26 0.0 0.0 0.00 0.00 0.00 63 1014.9
20260902124234 69 23 0.0 2.0 0.00 0.00 0.00 63 1014.6
20260902123729 69 4 2.0 2.0 0.00 0.00 0.00 63 1014.6
20260902123225 69 40 0.0 2.0 0.00 0.00 0.00 62 1014.5
20260902122723 71 29 1.0 2.0 0.00 0.00 0.00 60 1014.4
20260902122219 71 285 0.0 0.0 0.00 0.00 0.00 61 1014.5
20260902121714 71 348 0.0 0.0 0.00 0.00 0.00 60 1014.6
20260902121209 71 209 0.0 1.0 0.00 0.00 0.00 59 1014.4
20260902120705 71 234 0.0 2.0 0.00 0.00 0.00 59 1014.4
20260902120201 71 352 0.0 4.0 0.00 0.00 0.00 59 1014.5
20260902115701 71 0 0.0 0.0 0.00 0.00 0.00 58 1014.5
20260902115157 71 345 0.0 1.0 0.00 0.00 0.00 58 1014.2
20260902114653 71 334 0.0 1.0 0.00 0.00 0.00 58 1014.2
20260902114148 72 0 0.0 1.0 0.00 0.00 0.00 57 1014.1
20260902113643 72 294 0.0 0.0 0.00 0.00 0.00 56 1014.2
20260902113138 73 294 0.0 0.0 0.00 0.00 0.00 56 1014.3
20260902112632 73 270 0.0 0.0 0.00 0.00 0.00 56 1014.4
20260902112130 73 355 0.0 2.0 0.00 0.00 0.00 55 1014.2
20260902111625 73 0 0.0 2.0 0.00 0.00 0.00 57 1014.4
20260902111121 74 81 0.0 0.0 0.00 0.00 0.00 59 1014.5
20260902110617 74 81 0.0 0.0 0.00 0.00 0.00 60 1014.3
20260902110113 74 81 0.0 0.0 0.00 0.00 0.00 60 1014.3
20260902105612 74 78 0.0 2.0 0.00 0.00 0.00 60 1014.2
20260902105107 73 14 0.0 0.0 0.00 0.00 0.00 61 1014.2
20260902104602 73 165 0.0 0.0 0.00 0.00 0.00 61 1014.2
20260902104057 73 165 0.0 1.0 0.00 0.00 0.00 61 1014.2
20260902103552 73 63 0.0 0.0 0.00 0.00 0.00 59 1014.5
20260902103047 75 300 0.0 1.0 0.00 0.00 0.00 59 1014.2
20260902102544 74 8 0.0 0.0 0.00 0.00 0.00 59 1014.1
20260902102041 74 8 0.0 0.0 0.00 0.00 0.00 60 1014.3
20260902101536 73 8 0.0 2.0 0.00 0.00 0.00 59 1014.4
20260902101035 75 345 1.0 3.0 0.00 0.00 0.00 57 1014.1
20260902100534 77 172 0.0 0.0 0.00 0.00 0.00 56 1014.3
20260902100034 77 165 0.0 1.0 0.00 0.00 0.00 56 1014.1
20260902095534 77 164 2.0 3.0 0.00 0.00 0.00 56 1014.2
20260902095033 77 203 0.0 1.0 0.00 0.00 0.00 56 1014.1
20260902094529 77 261 0.0 0.0 0.00 0.00 0.00 56 1014.1
20260902094025 78 187 0.0 1.0 0.00 0.00 0.00 56 1014.1
20260902093519 77 261 0.0 2.0 0.00 0.00 0.00 55 1014.2
20260902093019 79 216 0.0 2.0 0.00 0.00 0.00 53 1014.2
20260902092514 79 173 1.0 4.0 0.00 0.00 0.00 53 1014.2
20260902092009 79 200 1.0 3.0 0.00 0.00 0.00 53 1014.2
20260902091504 79 145 1.0 3.0 0.00 0.00 0.00 53 1014.4
20260902091000 79 180 1.0 3.0 0.00 0.00 0.00 53 1014.1
20260902090455 79 194 2.0 4.0 0.00 0.00 0.00 54 1014.3
20260902085954 79 180 3.0 3.0 0.00 0.00 0.00 54 1014.2
20260902085449 78 183 2.0 3.0 0.00 0.00 0.00 55 1014.2
20260902084944 78 148 2.0 2.0 0.00 0.00 0.00 55 1014.3
20260902084441 77 151 0.0 2.0 0.00 0.00 0.00 56 1014.2
20260902083931 77 81 0.0 0.0 0.00 0.00 0.00 55 1014.4
20260902083430 77 74 0.0 1.0 0.00 0.00 0.00 54 1014.4
20260902082925 78 184 2.0 4.0 0.00 0.00 0.00 54 1014.1
20260902082421 78 170 2.0 4.0 0.00 0.00 0.00 54 1014.3
20260902081918 78 168 0.0 3.0 0.00 0.00 0.00 54 1014.3
20260902081414 78 175 2.0 4.0 0.00 0.00 0.00 53 1014.4
20260902080908 78 151 0.0 3.0 0.00 0.00 0.00 53 1014.6
20260902080404 78 102 0.0 2.0 0.00 0.00 0.00 52 1014.3
20260902075903 78 81 0.0 3.0 0.00 0.00 0.00 52 1014.2
20260902075400 78 150 0.0 2.0 0.00 0.00 0.00 52 1014.3
20260902074855 79 145 0.0 2.0 0.00 0.00 0.00 53 1014.3
20260902074351 80 157 0.0 3.0 0.00 0.00 0.00 52 1014.5
20260902073845 80 177 0.0 4.0 0.00 0.00 0.00 52 1014.4
20260902073342 80 176 2.0 4.0 0.00 0.00 0.00 51 1014.4
20260902072838 80 166 1.0 3.0 0.00 0.00 0.00 51 1014.2
20260902072333 80 184 4.0 4.0 0.00 0.00 0.00 50 1014.2
20260902071830 81 183 3.0 5.0 0.00 0.00 0.00 50 1014.4
20260902071324 81 138 3.0 6.0 0.00 0.00 0.00 49 1014.1
20260902070821 80 155 5.0 5.0 0.00 0.00 0.00 49 1014.3
20260902070320 80 195 2.0 3.0 0.00 0.00 0.00 49 1014.2
20260902065819 80 175 2.0 3.0 0.00 0.00 0.00 48 1014.5
20260902065314 80 202 2.0 4.0 0.00 0.00 0.00 48 1014.2
20260902064810 79 180 2.0 4.0 0.00 0.00 0.00 48 1014.1
20260902064306 80 184 0.0 3.0 0.00 0.00 0.00 47 1014.1
20260902063801 80 180 1.0 3.0 0.00 0.00 0.00 47 1014.1
20260902063255 81 178 4.0 4.0 0.00 0.00 0.00 46 1013.9
20260902062755 80 165 4.0 4.0 0.00 0.00 0.00 47 1013.9
20260902062250 79 163 0.0 4.0 0.00 0.00 0.00 47 1013.7
20260902061749 78 164 3.0 4.0 0.00 0.00 0.00 48 1013.9
20260902061245 78 148 0.0 2.0 0.00 0.00 0.00 48 1014.2
20260902060742 77 162 2.0 3.0 0.00 0.00 0.00 48 1014.1
20260902060237 78 143 2.0 4.0 0.00 0.00 0.00 48 1014.1
20260902055732 79 163 2.0 3.0 0.00 0.00 0.00 45 1013.9
20260902055228 80 195 1.0 2.0 0.00 0.00 0.00 45 1013.9
20260902054723 80 15 0.0 0.0 0.00 0.00 0.00 44 1013.6
20260902054219 80 114 0.0 0.0 0.00 0.00 0.00 44 1013.8
20260902053714 79 66 0.0 1.0 0.00 0.00 0.00 44 1013.9
20260902053214 79 348 0.0 2.0 0.00 0.00 0.00 44 1013.8
20260902052713 80 6 1.0 3.0 0.00 0.00 0.00 44 1014.1
20260902052209 80 36 2.0 2.0 0.00 0.00 0.00 43 1013.9
20260902051708 81 8 0.0 1.0 0.00 0.00 0.00 43 1013.9
20260902051203 81 0 0.0 1.0 0.00 0.00 0.00 43 1014.2
20260902050657 80 23 0.0 0.0 0.00 0.00 0.00 44 1013.8
20260902050153 81 188 0.0 0.0 0.00 0.00 0.00 43 1014.1
20260902045647 81 188 0.0 2.0 0.00 0.00 0.00 43 1014.1
20260902045143 81 29 0.0 2.0 0.00 0.00 0.00 42 1014.2
20260902044638 82 117 0.0 3.0 0.00 0.00 0.00 42 1014.1
20260902044134 82 0 0.0 0.0 0.00 0.00 0.00 42 1014.2
20260902043629 82 0 0.0 0.0 0.00 0.00 0.00 41 1014.2
20260902043124 83 0 0.0 2.0 0.00 0.00 0.00 41 1014.1
20260902042623 83 8 1.0 1.0 0.00 0.00 0.00 41 1014.5
20260902042119 83 81 0.0 1.0 0.00 0.00 0.00 41 1014.2
20260902041618 83 0 2.0 4.0 0.00 0.00 0.00 42 1013.8
20260902041113 82 342 0.0 3.0 0.00 0.00 0.00 42 1014.1
20260902040608 82 0 0.0 1.0 0.00 0.00 0.00 42 1013.9
20260902040103 82 15 0.0 0.0 0.00 0.00 0.00 42 1014.1
20260902035601 82 15 0.0 0.0 0.00 0.00 0.00 42 1013.9
20260902035056 82 15 0.0 0.0 0.00 0.00 0.00 43 1013.7
20260902034555 82 15 0.0 0.0 0.00 0.00 0.00 43 1013.9
20260902034055 83 15 0.0 0.0 0.00 0.00 0.00 42 1013.8
20260902033554 83 15 0.0 1.0 0.00 0.00 0.00 42 1013.7
20260902033049 83 352 0.0 2.0 0.00 0.00 0.00 43 1013.7
20260902032548 83 352 0.0 1.0 0.00 0.00 0.00 43 1013.3
20260902032043 84 353 0.0 0.0 0.00 0.00 0.00 42 1013.6
20260902031538 84 353 0.0 3.0 0.00 0.00 0.00 42 1013.5
20260902031034 84 351 4.0 4.0 0.00 0.00 0.00 41 1013.4
20260902030529 84 8 3.0 3.0 0.00 0.00 0.00 41 1013.3
20260902030028 85 12 2.0 3.0 0.00 0.00 0.00 41 1013.3
20260902025523 85 24 2.0 3.0 0.00 0.00 0.00 41 1013.0
20260902025018 86 0 2.0 3.0 0.00 0.00 0.00 41 1013.1
20260902024514 86 7 1.0 2.0 0.00 0.00 0.00 41 1013.0
20260902024008 86 351 2.0 2.0 0.00 0.00 0.00 41 1013.0
20260902023504 86 14 1.0 2.0 0.00 0.00 0.00 40 1013.0
20260902023004 86 15 0.0 2.0 0.00 0.00 0.00 40 1013.0
20260902022458 86 70 0.0 3.0 0.00 0.00 0.00 40 1013.1
20260902021954 86 53 2.0 3.0 0.00 0.00 0.00 40 1012.9
20260902021449 87 60 2.0 4.0 0.00 0.00 0.00 39 1012.7
20260902020944 87 48 2.0 3.0 0.00 0.00 0.00 39 1012.3
20260902020440 87 45 2.0 2.0 0.00 0.00 0.00 38 1012.3
20260902015936 87 32 2.0 3.0 0.00 0.00 0.00 38 1012.4
20260902015431 88 63 1.0 3.0 0.00 0.00 0.00 38 1012.4
20260902014926 88 23 3.0 3.0 0.00 0.00 0.00 37 1012.4
20260902014423 88 41 3.0 4.0 0.00 0.00 0.00 37 1012.0
20260902013922 88 10 4.0 6.0 0.00 0.00 0.00 37 1012.2
20260902013418 89 4 4.0 6.0 0.00 0.00 0.00 37 1012.1
20260902012913 89 346 5.0 5.0 0.00 0.00 0.00 37 1012.0
20260902012409 89 0 1.0 5.0 0.00 0.00 0.00 37 1012.2
20260902011904 89 19 5.0 6.0 0.00 0.00 0.00 37 1011.9
20260902011359 90 11 3.0 6.0 0.00 0.00 0.00 37 1012.1
20260902010858 90 8 0.0 7.0 0.00 0.00 0.00 36 1012.0
20260902010353 91 30 2.0 5.0 0.00 0.00 0.00 36 1012.1
20260902005853 91 21 5.0 9.0 0.00 0.00 0.00 36 1011.8
20260902005346 91 6 3.0 8.0 0.00 0.00 0.00 35 1011.9
20260902004842 91 15 8.0 9.0 0.00 0.00 0.00 34 1011.6
20260902004337 92 3 6.0 9.0 0.00 0.00 0.00 33 1011.8
20260902003832 92 12 4.0 9.0 0.00 0.00 0.00 33 1011.9
20260902003327 92 355 7.0 9.0 0.00 0.00 0.00 34 1011.5
20260902002823 92 17 7.0 9.0 0.00 0.00 0.00 34 1011.8
20260902002322 92 17 6.0 11.0 0.00 0.00 0.00 34 1011.5
20260902001817 92 18 7.0 13.0 0.00 0.00 0.00 34 1011.5
20260902001313 92 27 8.0 15.0 0.00 0.00 0.00 34 1011.5
20260902000812 93 0 11.0 14.0 0.00 0.00 0.00 33 1011.6
20260902000307 94 351 4.0 11.0 0.00 0.00 0.00 32 1011.5
20260901235803 94 354 0.0 7.0 0.00 0.00 0.00 30 1011.6
20260901235257 94 0 1.0 5.0 0.00 0.00 0.00 30 1011.4
20260901234756 94 357 5.0 7.0 0.00 0.00 0.00 30 1011.6
20260901234251 95 8 7.0 10.0 0.00 0.00 0.00 30 1011.4
20260901233746 94 2 7.0 11.0 0.00 0.00 0.00 30 1011.4
20260901233242 94 4 7.0 13.0 0.00 0.00 0.00 30 1011.4
20260901232742 94 4 13.0 16.0 0.00 0.00 0.00 30 1011.5
20260901232232 95 346 5.0 15.0 0.00 0.00 0.00 30 1011.3
20260901231728 94 343 3.0 13.0 0.00 0.00 0.00 30 1011.3
20260901231224 94 313 0.0 10.0 0.00 0.00 0.00 30 1011.3
20260901230720 94 354 4.0 7.0 0.00 0.00 0.00 29 1011.2
20260901230219 97 15 0.0 1.0 0.00 0.00 0.00 27 1011.1
20260901225714 97 353 0.0 3.0 0.00 0.00 0.00 27 1011.5
20260901225209 98 216 3.0 4.0 0.00 0.00 0.00 26 1011.6
20260901224705 99 192 1.0 3.0 0.00 0.00 0.00 24 1011.2
20260901224201 101 194 0.0 2.0 0.00 0.00 0.00 24 1011.6
20260901223657 98 161 2.0 5.0 0.00 0.00 0.00 26 1011.4
20260901223151 98 194 3.0 8.0 0.00 0.00 0.00 27 1011.4
20260901222647 99 246 3.0 7.0 0.00 0.00 0.00 26 1011.6
20260901222143 98 222 3.0 9.0 0.00 0.00 0.00 27 1011.3
20260901221639 98 199 3.0 8.0 0.00 0.00 0.00 28 1011.6
20260901221135 99 180 7.0 8.0 0.00 0.00 0.00 27 1011.9
20260901220634 100 201 2.0 5.0 0.00 0.00 0.00 27 1011.4
20260901220134 98 220 3.0 10.0 0.00 0.00 0.00 27 1011.4
20260901215632 98 252 7.0 9.0 0.00 0.00 0.00 27 1011.5
20260901215126 100 180 1.0 4.0 0.00 0.00 0.00 27 1011.6
20260901214624 98 157 2.0 12.0 0.00 0.00 0.00 28 1011.6
20260901214119 99 167 6.0 8.0 0.00 0.00 0.00 27 1011.8
20260901213619 98 159 6.0 10.0 0.00 0.00 0.00 28 1011.8
20260901213113 98 174 8.0 12.0 0.00 0.00 0.00 28 1011.8
20260901212608 98 187 4.0 7.0 0.00 0.00 0.00 28 1012.0
20260901212104 98 172 0.0 14.0 0.00 0.00 0.00 28 1011.9
20260901211559 96 193 5.0 13.0 0.00 0.00 0.00 29 1011.8
20260901211055 97 168 2.0 7.0 0.00 0.00 0.00 28 1011.8
20260901210550 98 90 1.0 9.0 0.00 0.00 0.00 28 1011.8
20260901210047 98 140 0.0 4.0 0.00 0.00 0.00 28 1012.0
20260901205542 96 175 8.0 8.0 0.00 0.00 0.00 28 1012.2
20260901205041 99 160 13.0 13.0 0.00 0.00 0.00 26 1012.1
20260901204538 100 168 4.0 13.0 0.00 0.00 0.00 26 1012.3
20260901204033 99 112 2.0 7.0 0.00 0.00 0.00 27 1012.3
20260901203527 98 178 3.0 10.0 0.00 0.00 0.00 28 1012.5
20260901203022 100 117 3.0 3.0 0.00 0.00 0.00 27 1012.7
20260901202517 98 157 3.0 6.0 0.00 0.00 0.00 28 1012.7
20260901202013 98 170 5.0 6.0 0.00 0.00 0.00 27 1013.0
20260901201508 98 182 4.0 13.0 0.00 0.00 0.00 28 1012.9
20260901201003 97 213 3.0 7.0 0.00 0.00 0.00 28 1013.2
20260901200457 98 229 6.0 9.0 0.00 0.00 0.00 28 1013.1
20260901195956 98 174 9.0 9.0 0.00 0.00 0.00 28 1013.3
20260901195455 97 162 2.0 4.0 0.00 0.00 0.00 29 1013.1
20260901194949 97 144 4.0 8.0 0.00 0.00 0.00 28 1013.2
20260901194444 97 191 6.0 7.0 0.00 0.00 0.00 28 1013.3
20260901193940 96 169 3.0 12.0 0.00 0.00 0.00 28 1013.4
20260901193440 97 156 3.0 6.0 0.00 0.00 0.00 27 1013.2
20260901192939 96 177 8.0 11.0 0.00 0.00 0.00 29 1013.1
20260901192435 97 240 7.0 7.0 0.00 0.00 0.00 28 1013.2